{"data":{"norad_id":62848,"intl_designator":"2025-019V","name":"STARLINK-32781","alt_names":[],"object_type":"PAYLOAD","status":"ACTIVE","operator":null,"country":"US","launch_date":"2025-01-27","launch_site_code":"AFETR","launch_vehicle":null,"mission":null,"orbit_class":"UNKNOWN","rcs_meters":null,"size_class":null,"mass_kg":null,"dimensions":null,"purposes":["comms"],"wikipedia_slug":null,"has_3d_model":false,"image_url":null,"decayed_at":null,"tle_current":{"epoch":"2026-05-25T00:21:15.554304Z","epoch_age_seconds":87947,"freshness":"FRESH","line1":"1 62848U 25019V   26145.01476336  .00014444  00000+0  53315-3 0  9999","line2":"2 62848  43.0041  17.9615 0001001 255.1220 104.9521 15.27595073 73927","mean_motion":15.27595073,"eccentricity":0.0001001,"inclination_deg":43.0041,"raan_deg":17.9615,"arg_perigee_deg":255.122,"mean_anomaly_deg":104.9521,"bstar":0.00053315,"rev_number":7392,"period_min":94.265818570102,"perigee_km":482.31716221595,"apogee_km":483.69076263663,"semimajor_km":6861.1409624263,"source":"CELESTRAK","updated_at":"2026-05-25T13:38:19.782349Z"}}}